Weather reports worldwide

Advertisment
Hereford/Credenhill, United Kingdom (3522): temperature & dewpoint: 19.03.2017 21:00:00 - 25.03.2017 21:00:00 (GMT)Hereford/Credenhill, United Kingdom (3522): temperature -20cm & temperature -100cm: 19.03.2017 21:00:00 - 25.03.2017 21:00:00 (GMT)Hereford/Credenhill, United Kingdom (3522): wind speed & gusts: 19.03.2017 21:00:00 - 25.03.2017 21:00:00 (GMT)Hereford/Credenhill, United Kingdom (3522): wind direction: 19.03.2017 21:00:00 - 25.03.2017 21:00:00 (GMT)Hereford/Credenhill, United Kingdom (3522): reduced air pressure: 19.03.2017 21:00:00 - 25.03.2017 21:00:00 (GMT)Hereford/Credenhill, United Kingdom (3522): visibility: 19.03.2017 21:00:00 - 25.03.2017 21:00:00 (GMT)Hereford/Credenhill, United Kingdom (3522): precipitation: 19.03.2017 21:00:00 - 25.03.2017 21:00:00 (GMT)
Date & Time tt [°C] td [°C] tt -20cm [°C] tt -100cm [°C] ff [km/h] ff [kn] fx [km/h] fx [kn] dd ppp [hPa] vv [km] rr [mm]
25.03.2017 21:00:00 8,8 -2,7 - - 9 5 - - NE 1028,1 45 0,0
25.03.2017 20:00:00 9,7 -2,4 - - 11 6 - - NE 1027,8 45 0,0
25.03.2017 19:00:00 10,9 -1,2 - - 15 8 - - NE 1027,5 45 0,0
25.03.2017 18:00:00 12,6 -1,2 - - 18 10 - - NE 1027,3 30 0,0
25.03.2017 17:00:00 13,7 -3,1 - - 22 12 - - NE 1027,4 35 0,0
25.03.2017 16:00:00 14,2 0,4 - - 21 11 - - NE 1028,1 40 0,0
25.03.2017 15:00:00 14,0 0,5 - - 18 10 - - NE 1029,1 30 0,0
25.03.2017 14:00:00 14,1 1,0 - - 18 10 - - NE 1030,0 45 0,0
25.03.2017 13:00:00 12,6 3,3 - - 16 9 - - NNE 1031,1 22 0,0
25.03.2017 12:00:00 12,0 2,1 - - 16 9 - - NE 1031,9 17 0,0
25.03.2017 11:00:00 9,7 3,8 - - 11 6 - - NNE 1032,8 27 0,0
25.03.2017 10:00:00 8,0 3,9 - - 11 6 - - NE 1033,5 13 0,0
25.03.2017 09:00:00 6,3 2,5 8,0 8,7 5 3 - - NNE 1033,8 12 0,0
25.03.2017 08:00:00 4,0 3,5 - - 2 1 - - NNE 1034,4 12 0,0
25.03.2017 07:00:00 0,3 0,0 - - 2 1 - - WSW 1034,4 5 0,0
25.03.2017 06:00:00 0,2 -0,3 - - 4 2 - - W 1034,0 5 0,0
25.03.2017 05:00:00 2,4 0,9 - - 5 3 - - N 1033,9 12 0,0
25.03.2017 04:00:00 3,7 1,0 - - 8 4 - - NE 1034,0 14 0,0
25.03.2017 03:00:00 4,0 1,5 - - 8 4 - - NNE 1034,4 6 0,0
25.03.2017 02:00:00 2,6 1,4 - - 2 1 - - NNW 1034,6 11 0,0
25.03.2017 01:00:00 4,7 1,9 - - 5 3 - - N 1034,8 14 0,0
25.03.2017 00:00:00 4,6 2,3 - - 2 1 - - N 1034,8 12 0,0
24.03.2017 23:00:00 6,4 3,5 - - 8 4 - - NNE 1034,9 14 0,0
24.03.2017 22:00:00 6,5 3,6 - - 8 4 - - NNE 1034,5 18 0,0
24.03.2017 21:00:00 7,2 3,4 - - 5 3 - - NNE 1033,9 21 0,0
24.03.2017 20:00:00 8,0 4,1 - - 9 5 - - NE 1033,0 17 0,0
24.03.2017 19:00:00 9,4 4,6 - - 8 4 - - NE 1032,3 18 0,0
24.03.2017 18:00:00 10,7 5,2 - - 11 6 - - ENE 1031,5 21 0,0
24.03.2017 17:00:00 12,0 5,0 - - 16 9 - - NE 1030,5 24 0,0
24.03.2017 16:00:00 12,3 5,3 - - 18 10 - - ENE 1030,9 21 0,0
24.03.2017 15:00:00 11,7 5,0 - - 18 10 - - NE 1031,4 21 0,0
24.03.2017 14:00:00 11,0 5,9 - - 16 9 - - NE 1031,9 20 0,0
24.03.2017 13:00:00 9,7 4,9 - - 21 11 - - NE 1032,1 14 0,0
24.03.2017 12:00:00 9,8 5,3 - - 22 12 - - NE 1031,2 17 0,0
24.03.2017 11:00:00 8,4 4,8 - - 22 12 - - NE 1031,1 13 0,0
24.03.2017 10:00:00 6,8 3,8 - - 15 8 - - NE 1031,0 9 0,0
24.03.2017 09:00:00 6,3 3,9 7,9 8,7 16 9 - - ENE 1030,7 10 0,0
24.03.2017 08:00:00 5,8 3,5 - - 21 11 - - NE 1030,0 11 0,0
24.03.2017 07:00:00 5,8 3,2 - - 15 8 - - NE 1029,5 10 0,0
24.03.2017 06:00:00 5,9 3,4 - - 16 9 - - NE 1028,1 10 0,0
24.03.2017 05:00:00 5,8 3,4 - - 15 8 - - NE 1027,5 10 0,0
24.03.2017 04:00:00 6,0 3,3 - - 16 9 - - NE 1027,2 9 0,0
24.03.2017 03:00:00 6,2 3,5 - - 16 9 - - NE 1026,8 10 0,0
24.03.2017 02:00:00 6,3 3,4 - - 22 12 - - NE 1026,5 9 0,0
24.03.2017 01:00:00 6,1 3,2 - - 16 9 - - NE 1026,3 12 0,0
24.03.2017 00:00:00 5,9 2,5 - - 13 7 - - NE 1026,2 14 0,0
23.03.2017 23:00:00 5,6 1,9 - - 13 7 - - NE 1025,6 15 0,0
23.03.2017 22:00:00 6,1 1,2 - - 15 8 - - NNE 1024,4 16 0,0
23.03.2017 21:00:00 7,0 1,4 - - 18 10 - - NNE 1023,5 20 0,0
23.03.2017 20:00:00 7,3 1,9 - - 15 8 - - NE 1022,8 18 0,0
23.03.2017 19:00:00 8,4 1,0 - - 18 10 - - NE 1021,6 17 0,0
23.03.2017 18:00:00 9,5 1,4 - - 24 13 - - NE 1020,2 27 0,0
23.03.2017 17:00:00 10,8 2,0 - - 22 12 52 28 NE 1019,2 29 0,0
23.03.2017 16:00:00 11,0 2,6 - - 29 16 52 28 NE 1018,4 21 0,0
23.03.2017 15:00:00 10,9 3,8 - - 21 11 - - NE 1018,0 17 0,0
23.03.2017 14:00:00 10,2 4,1 - - 22 12 - - NE 1017,8 11 0,0
23.03.2017 13:00:00 10,1 4,3 - - 24 13 - - NE 1017,6 20 0,0
23.03.2017 12:00:00 10,0 4,9 - - 29 16 - - NE 1017,4 14 0,0
23.03.2017 11:00:00 8,4 5,7 - - 15 8 - - NE 1017,4 13 0,0
23.03.2017 10:00:00 6,3 4,8 - - 16 9 - - NNE 1017,1 9 0,0
23.03.2017 09:00:00 5,0 4,0 8,0 8,7 13 7 - - NNE 1016,7 9 0,0
23.03.2017 08:00:00 4,1 3,5 - - 13 7 - - N 1015,9 7 0,8
23.03.2017 07:00:00 3,2 2,9 - - 11 6 - - N 1015,7 4,3 0,4
23.03.2017 06:00:00 2,9 2,7 - - 9 5 - - N 1014,8 4,9 0,0
23.03.2017 05:00:00 -0,7 -0,7 - - 4 2 - - E 1014,1 5 0,0
23.03.2017 04:00:00 -1,2 -1,2 - - 2 1 - - SW 1013,8 0,2 0,0
23.03.2017 03:00:00 -1,3 -1,3 - - 2 1 - - W 1013,2 0,3 0,0
23.03.2017 02:00:00 -1,0 -1,0 - - 5 3 - - WSW 1013,1 0,2 0,0
23.03.2017 01:00:00 -0,9 -1,0 - - 2 1 - - W 1012,6 0,1 0,0
23.03.2017 00:00:00 -0,7 -0,8 - - 2 1 - - NNE 1012,3 0,1 0,0
22.03.2017 23:00:00 0,2 0,1 - - 4 2 - - SW 1011,5 0,6 0,0
22.03.2017 22:00:00 0,8 0,5 - - 2 1 - - NE 1010,8 0,7 0,0
22.03.2017 21:00:00 1,9 1,6 - - 4 2 - - NE 1010,1 5 0,0
22.03.2017 20:00:00 2,8 2,6 - - 4 2 - - ENE 1009,3 21 0,0
22.03.2017 19:00:00 3,8 2,6 - - 8 4 - - E 1008,3 40 0,0
22.03.2017 18:00:00 6,0 2,4 - - 4 2 - - E 1007,0 50 0,0
22.03.2017 17:00:00 6,9 3,6 - - 4 2 - - WSW 1006,2 45 0,0
22.03.2017 16:00:00 6,0 3,6 - - 5 3 - - WNW 1005,5 45 0,6
22.03.2017 15:00:00 5,0 3,3 - - 8 4 - - SSW 1005,2 5 0,8
22.03.2017 14:00:00 8,0 3,4 - - 4 2 - - ESE 1003,9 35 0,0
22.03.2017 13:00:00 7,0 4,7 - - 2 1 - - WNW 1003,8 35 0,0
22.03.2017 12:00:00 6,5 4,9 - - 2 1 - - W 1003,3 30 0,0
22.03.2017 11:00:00 5,9 4,9 - - 2 1 - - S 1002,8 18 0,2
22.03.2017 10:00:00 5,2 4,5 - - 2 1 - - WSW 1002,2 13 0,0
22.03.2017 09:00:00 5,0 4,3 8,5 8,7 2 1 - - ESE 1001,3 50 0,0
22.03.2017 08:00:00 4,3 3,8 - - 2 1 - - E 1000,8 19 0,0
22.03.2017 07:00:00 3,7 3,2 - - 5 3 - - SE 1000,4 16 0,8
22.03.2017 06:00:00 3,6 2,8 - - 9 5 - - SE 1000,3 11 2,2
22.03.2017 05:00:00 3,9 3,1 - - 8 4 - - S 1000,5 4,4 2,8
22.03.2017 04:00:00 4,3 3,6 - - 5 3 - - S 1000,8 9 2,6
22.03.2017 03:00:00 5,5 4,2 - - 13 7 - - SSE 1001,2 8 1,8
22.03.2017 02:00:00 5,4 4,7 - - 11 6 - - ESE 1001,3 7 0,8
22.03.2017 01:00:00 4,2 3,3 - - 8 4 - - S 1002,6 12 3,2
22.03.2017 00:00:00 5,0 4,0 - - 13 7 - - SSE 1003,7 19 3,6
21.03.2017 23:00:00 4,9 4,0 - - 5 3 - - SSW 1004,4 1,4 3,8
21.03.2017 22:00:00 4,4 4,2 - - 5 3 - - E 1005,1 12 0,0
21.03.2017 21:00:00 3,8 3,3 - - 8 4 - - E 1006,2 11 1,6
21.03.2017 20:00:00 4,0 3,3 - - 8 4 - - ESE 1006,8 24 0,2
21.03.2017 19:00:00 3,9 2,9 - - 4 2 - - E 1007,7 14 0,6
21.03.2017 18:00:00 4,3 2,9 - - 5 3 - - S 1007,9 22 0,2
21.03.2017 17:00:00 4,8 2,6 - - 8 4 - - SSW 1008,0 21 0,6
21.03.2017 16:00:00 6,7 2,2 - - 8 4 - - W 1007,7 30 0,0
21.03.2017 15:00:00 6,5 2,8 - - 9 5 - - W 1008,2 29 0,4
21.03.2017 14:00:00 7,4 0,8 - - 21 11 - - W 1008,9 40 0,0
21.03.2017 13:00:00 7,6 1,8 - - 11 6 - - SW 1009,3 40 0,0
21.03.2017 12:00:00 7,7 2,0 - - 15 8 46 25 W 1009,2 24 0,0
21.03.2017 11:00:00 8,3 -1,5 - - 24 13 48 26 WSW 1009,0 21 0,0
21.03.2017 10:00:00 7,6 0,4 - - 26 14 - - W 1009,0 35 0,0
21.03.2017 09:00:00 6,5 -0,3 9,0 8,7 21 11 - - WSW 1008,9 29 0,0
21.03.2017 08:00:00 5,2 -0,8 - - 18 10 - - W 1008,7 18 0,0
21.03.2017 07:00:00 2,9 -0,9 - - 8 4 - - W 1008,5 18 0,0
21.03.2017 06:00:00 2,6 -0,6 - - 13 7 - - W 1008,1 22 0,0
21.03.2017 05:00:00 2,7 -0,9 - - 11 6 - - WSW 1007,6 20 0,0
21.03.2017 04:00:00 3,1 -0,3 - - 11 6 - - WSW 1007,3 24 0,0
21.03.2017 03:00:00 3,6 -0,1 - - 16 9 - - W 1006,9 35 0,0
21.03.2017 02:00:00 4,2 0,4 - - 16 9 - - W 1006,2 35 0,0
21.03.2017 01:00:00 5,0 1,0 - - 24 13 - - W 1005,6 35 0,0
21.03.2017 00:00:00 5,5 1,7 - - 16 9 - - WSW 1005,2 40 0,0
20.03.2017 23:00:00 6,6 1,8 - - 16 9 46 25 WSW 1004,8 35 0,0
20.03.2017 22:00:00 7,3 2,4 - - 15 8 - - WSW 1004,3 28 0,0
20.03.2017 21:00:00 7,4 3,0 - - 16 9 - - WSW 1004,4 22 0,0
20.03.2017 20:00:00 6,5 2,5 - - 9 5 - - SW 1004,2 30 0,0
20.03.2017 19:00:00 8,2 2,7 - - 15 8 - - WSW 1003,6 45 0,0
20.03.2017 18:00:00 9,3 3,6 - - 11 6 - - WSW 1002,9 35 0,0
20.03.2017 17:00:00 9,9 2,7 - - 15 8 - - WSW 1002,9 45 0,0
20.03.2017 16:00:00 10,0 4,7 - - 16 9 - - WSW 1002,6 30 0,0
20.03.2017 15:00:00 9,2 5,7 - - 15 8 - - W 1002,3 40 0,0
20.03.2017 14:00:00 9,1 5,1 - - 29 16 - - W 1002,2 50 0,2
20.03.2017 13:00:00 8,2 7,0 - - 13 7 - - W 1002,0 13 1,0
20.03.2017 12:00:00 8,3 6,4 - - 18 10 - - W 1001,5 8 1,2
20.03.2017 11:00:00 10,0 8,4 - - 15 8 - - W 1000,7 45 1,2
20.03.2017 10:00:00 11,7 9,5 - - 11 6 - - SW 1000,1 21 0,2
20.03.2017 09:00:00 11,9 10,2 9,2 8,5 9 5 - - SW 1000,2 50 0,2
20.03.2017 08:00:00 10,7 9,9 - - 5 3 - - SSW 1000,4 16 0,2
20.03.2017 07:00:00 10,2 9,4 - - 5 3 - - SSW 1001,5 14 0,0
20.03.2017 06:00:00 10,1 9,3 - - 5 3 - - S 1002,3 50 0,0
20.03.2017 05:00:00 10,0 9,4 - - 5 3 - - SW 1003,1 40 0,2
20.03.2017 04:00:00 10,1 9,5 - - 8 4 - - SW 1003,4 5 0,2
20.03.2017 03:00:00 10,2 9,6 - - 5 3 - - SSW 1004,2 9 0,6
20.03.2017 02:00:00 10,3 9,3 - - 5 3 - - SSW 1004,8 50 0,0
20.03.2017 01:00:00 11,9 8,7 - - 16 9 - - WSW 1005,7 45 0,0
20.03.2017 00:00:00 12,3 8,5 - - 21 11 48 26 WSW 1006,1 45 0,0
19.03.2017 23:00:00 12,2 8,4 - - 21 11 48 26 WSW 1005,9 45 0,0
19.03.2017 22:00:00 11,9 8,8 - - 21 11 - - WSW 1006,1 45 0,0
19.03.2017 21:00:00 11,8 8,6 - - 21 11 - - WSW 1006,5 45 0,0

tt = temperature
td = dewpoint
tt -20cm = temperature -20cm
tt -100cm = temperature -100cm
ff = wind speed
fx = gusts
dd = wind direction
ppp = reduced air pressure
vv = visibility
rr = precipitation

Next stations